Location: Unspecified
(54.1780°N, 0.0000°E)
Time: 21:16:20
(UTC+00:00)

Tiros 1 - Pass Details

Date: 25 June 2019
Orbit: 630 x 664 km, 48.4° (Epoch: 18 July)

Event Time Altitude Azimuth Distance (km) Brightness Sun altitude
Rises 21:44:30 0° 205° (SSW) 2,955 10.2 -6.9°
Reaches altitude 10° 21:47:34 10° 185° (S) 2,040 9.2 -7.2°
Maximum altitude 21:50:29 17° 146° (SE) 1,645 8.6 -7.4°
Drops below altitude 10° 21:53:24 10° 107° (ESE) 2,032 9.3 -7.6°
Sets 21:56:27 0° 87° (E) 2,938 10.3 -7.8°
